FW0579 Weather Reports


Display with metric or nautical units.
time (UTC)temp
F
wind
direction
speed
MPH
gust
MPH
rain 1hr
in
rain 24hr
in
rain mn
in
humidity
%
barometer
mb
20260904233048 79 284 4.0 14.0 0.00 0.00 0.00 36 1012.6
20260904231545 80 257 4.0 9.0 0.00 0.00 0.00 38 1012.6
20260904230049 79 234 2.0 10.0 0.00 0.00 0.00 38 1012.6
20260904224643 80 238 1.0 7.0 0.00 0.00 0.00 37 1012.8
20260904223040 79 350 1.0 8.0 0.00 0.00 0.00 37 1012.9
20260904221537 78 280 5.0 12.0 0.00 0.00 0.00 35 1013.0
20260904213034 77 232 3.0 9.0 0.00 0.00 0.00 40 1013.1
20260904211530 76 281 6.0 12.0 0.00 0.00 0.00 39 1013.2
20260904210035 77 247 8.0 13.0 0.00 0.00 0.00 40 1013.3
20260904204627 76 233 2.0 9.0 0.00 0.00 0.00 45 1013.2
20260904203034 76 277 2.0 10.0 0.00 0.00 0.00 46 1013.4
20260904201523 75 64 3.0 12.0 0.00 0.00 0.00 47 1013.4
20260904200031 74 230 4.0 12.0 0.00 0.00 0.00 49 1013.3
20260904194621 73 271 1.0 12.0 0.00 0.00 0.00 50 1013.4
20260904193025 72 269 4.0 13.0 0.00 0.00 0.00 51 1013.6
20260904191535 72 237 4.0 10.0 0.00 0.00 0.00 52 1013.8
20260904190020 72 261 5.0 9.0 0.00 0.00 0.00 54 1013.9
20260904183013 70 248 5.0 11.0 0.00 0.00 0.00 57 1014.0
20260904181512 69 236 0.0 9.0 0.00 0.00 0.00 62 1013.8
20260904180010 70 271 4.0 9.0 0.00 0.00 0.00 61 1014.0
20260904173005 68 279 6.0 12.0 0.00 0.00 0.00 65 1013.9
20260904171501 67 360 5.0 13.0 0.00 0.00 0.00 66 1013.8
20260904170100 67 280 5.0 11.0 0.00 0.00 0.00 65 1013.7
20260904164656 67 219 5.0 10.0 0.00 0.00 0.00 67 1013.6
20260904163104 66 259 3.0 9.0 0.00 0.00 0.00 67 1013.5
20260904161549 65 360 5.0 10.0 0.00 0.00 0.00 68 1013.4
20260904160045 65 360 5.0 10.0 0.00 0.00 0.00 69 1013.4
20260904154641 64 360 4.0 10.0 0.00 0.00 0.00 71 1013.4
20260904153046 63 360 6.0 9.0 0.00 0.00 0.00 73 1013.4
20260904151537 62 360 4.0 9.0 0.00 0.00 0.00 76 1013.3
20260904150035 61 216 3.0 5.0 0.00 0.00 0.00 80 1013.3
20260904144529 61 205 1.0 3.0 0.00 0.00 0.00 79 1013.0
20260904143027 61 205 0.0 2.0 0.00 0.00 0.00 79 1012.9
20260904141523 62 205 0.0 0.0 0.00 0.00 0.00 79 1012.7
20260904140021 62 205 0.0 2.0 0.00 0.00 0.00 79 1012.4
20260904134618 62 205 2.0 4.0 0.00 0.00 0.00 79 1012.3
20260904133020 62 203 0.0 0.0 0.00 0.00 0.00 79 1012.3
20260904131518 62 203 0.0 2.0 0.00 0.00 0.00 79 1012.2
20260904130017 62 203 2.0 4.0 0.00 0.00 0.00 79 1012.1
20260904124616 62 235 3.0 6.0 0.00 0.00 0.00 80 1012.0
20260904123013 62 229 2.0 7.0 0.00 0.00 0.00 80 1012.0
20260904121513 62 227 3.0 9.0 0.00 0.00 0.00 80 1011.9
20260904120014 62 360 4.0 10.0 0.00 0.00 0.00 80 1012.0
20260904114610 63 360 5.0 11.0 0.00 0.00 0.00 81 1012.0
20260904113019 63 360 5.0 12.0 0.00 0.00 0.00 81 1011.8
20260904111513 63 360 4.0 10.0 0.00 0.00 0.00 82 1011.8
20260904110021 63 360 6.0 11.0 0.00 0.00 0.00 82 1011.7
20260904104511 63 360 7.0 12.0 0.00 0.00 0.00 81 1011.5
20260904103006 63 360 5.0 13.0 0.00 0.00 0.00 80 1011.4
20260904101504 63 360 7.0 12.0 0.00 0.00 0.00 80 1011.3
20260904100002 63 360 4.0 10.0 0.00 0.00 0.00 81 1011.3
20260904094503 63 360 4.0 8.0 0.00 0.00 0.00 82 1011.4
20260904093117 63 360 3.0 8.0 0.00 0.00 0.00 81 1011.3
20260904091600 64 360 2.0 6.0 0.00 0.00 0.00 81 1011.2
20260904090101 64 360 2.0 5.0 0.00 0.00 0.00 80 1011.3
20260904084600 64 360 1.0 3.0 0.00 0.00 0.00 80 1011.3
20260904083058 64 360 0.0 0.0 0.00 0.00 0.00 80 1011.4
20260904081558 64 360 0.0 0.0 0.00 0.00 0.00 81 1011.3
20260904074556 64 360 3.0 5.0 0.00 0.00 0.00 81 1011.4
20260904073155 64 360 2.0 4.0 0.00 0.00 0.00 81 1011.4
20260904071555 64 360 2.0 5.0 0.00 0.00 0.00 81 1011.4
20260904070056 64 360 2.0 4.0 0.00 0.00 0.00 81 1011.5
20260904064553 65 360 2.0 8.0 0.00 0.00 0.00 81 1011.5
20260904063051 65 360 4.0 10.0 0.00 0.00 0.00 81 1011.4
20260904061553 65 360 3.0 8.0 0.00 0.00 0.00 81 1011.3
20260904060049 65 360 1.0 4.0 0.00 0.00 0.00 80 1011.3
20260904054548 66 360 0.0 3.0 0.00 0.00 0.00 80 1011.2
20260904053047 66 360 1.0 4.0 0.00 0.00 0.00 80 1011.2
20260904051550 66 360 1.0 4.0 0.00 0.00 0.00 80 1011.4
20260904050045 66 360 0.0 0.0 0.00 0.00 0.00 80 1011.3
20260904044543 66 360 2.0 4.0 0.00 0.00 0.00 80 1011.6
20260904043042 66 360 0.0 3.0 0.00 0.00 0.00 79 1011.7
20260904041548 66 360 1.0 4.0 0.00 0.00 0.00 79 1011.6
20260904040039 67 360 2.0 10.0 0.00 0.00 0.00 78 1011.3
20260904034550 68 252 1.0 8.0 0.00 0.00 0.00 77 1011.2
20260904033139 68 269 1.0 5.0 0.00 0.00 0.00 76 1011.0
20260904031543 68 267 2.0 7.0 0.00 0.00 0.00 74 1010.8
20260904030037 69 288 5.0 11.0 0.00 0.00 0.00 74 1010.5
20260904024537 69 360 3.0 10.0 0.00 0.00 0.00 72 1010.7
20260904023038 70 360 2.0 9.0 0.00 0.00 0.00 71 1010.9
20260904021536 70 275 3.0 8.0 0.00 0.00 0.00 69 1010.8
20260904020036 71 360 1.0 7.0 0.00 0.00 0.00 68 1010.7
20260904014537 72 261 2.0 15.0 0.00 0.00 0.00 66 1010.6
20260904013037 73 245 4.0 13.0 0.00 0.00 0.00 65 1010.7
20260904011557 74 350 3.0 10.0 0.00 0.00 0.00 63 1010.7
20260904010036 75 242 5.0 13.0 0.00 0.00 0.00 61 1010.8
20260904004535 77 261 7.0 12.0 0.00 0.00 0.00 56 1010.5
20260904003034 78 302 3.0 11.0 0.00 0.00 0.00 55 1010.5
20260904001532 78 252 9.0 15.0 0.00 0.00 0.00 54 1010.6
20260904000040 79 255 3.0 13.0 0.00 0.00 0.00 54 1010.6